TimeEST,TemperatureF,Dew PointF,Humidity,Sea Level PressureIn,VisibilityMPH,Wind Direction,Wind SpeedMPH,Gust SpeedMPH,PrecipitationIn,Events,Conditions,WindDirDegrees,DateUTC
12:15 AM,30.9,30.0,96,30.02,0.2,Calm,Calm,-,N/A,Fog,Light Freezing Fog,0,2013-02-23 05:15:00
12:35 AM,30.7,29.8,96,30.02,0.2,Calm,Calm,-,N/A,Fog,Light Freezing Fog,0,2013-02-23 05:35:00
12:55 AM,30.9,30.0,96,30.04,0.2,Calm,Calm,-,N/A,Fog,Light Freezing Fog,0,2013-02-23 05:55:00
1:15 AM,31.1,30.2,96,30.01,0.2,Calm,Calm,-,N/A,Fog,Light Freezing Fog,0,2013-02-23 06:15:00
1:35 AM,31.1,30.2,96,30.01,0.2,Calm,Calm,-,N/A,Fog,Light Freezing Fog,0,2013-02-23 06:35:00
2:15 AM,31.1,30.2,96,29.99,0.2,Calm,Calm,-,N/A,Fog,Light Freezing Fog,0,2013-02-23 07:15:00
2:35 AM,31.5,30.6,96,29.99,0.5,Calm,Calm,-,N/A,Fog,Light Freezing Fog,0,2013-02-23 07:35:00
2:55 AM,31.3,30.4,96,29.98,0.5,Calm,Calm,-,N/A,Fog,Light Freezing Fog,0,2013-02-23 07:55:00
3:15 AM,31.3,30.4,96,29.95,0.2,Calm,Calm,-,N/A,Fog,Light Freezing Fog,0,2013-02-23 08:15:00
3:35 AM,31.8,30.9,96,29.97,1.2,Calm,Calm,-,N/A,,Overcast,0,2013-02-23 08:35:00
3:55 AM,31.8,30.9,96,29.96,0.8,Calm,Calm,-,N/A,,Overcast,0,2013-02-23 08:55:00
4:15 AM,32.0,31.3,97,29.97,0.8,Calm,Calm,-,N/A,,Overcast,0,2013-02-23 09:15:00
4:35 AM,32.0,31.1,96,29.96,0.5,Calm,Calm,-,N/A,,Overcast,0,2013-02-23 09:35:00
4:55 AM,32.0,31.6,99,29.96,1.2,North,4.6,-,N/A,,Overcast,350,2013-02-23 09:55:00
5:15 AM,32.0,31.5,98,29.95,0.5,Calm,Calm,-,N/A,,Overcast,0,2013-02-23 10:15:00
5:35 AM,32.0,31.8,99,29.94,1.8,Calm,Calm,-,N/A,,Overcast,0,2013-02-23 10:35:00
5:55 AM,32.4,32.0,99,29.92,4.0,Calm,Calm,-,N/A,,Overcast,0,2013-02-23 10:55:00
6:15 AM,32.4,32.0,99,29.91,1.5,NW,4.6,-,N/A,,Overcast,320,2013-02-23 11:15:00
6:35 AM,36.0,34.9,96,29.91,10.0,Calm,Calm,-,N/A,Rain,Rain,0,2013-02-23 11:35:00
7:15 AM,34.9,33.8,96,29.92,10.0,Calm,Calm,-,N/A,,Light Drizzle,0,2013-02-23 12:15:00
7:35 AM,33.8,32.9,96,29.91,10.0,Calm,Calm,-,N/A,,Overcast,0,2013-02-23 12:35:00
7:55 AM,33.3,32.4,96,29.92,0.5,Calm,Calm,-,N/A,,Light Drizzle,0,2013-02-23 12:55:00
8:15 AM,33.3,32.4,96,29.91,0.2,Calm,Calm,-,N/A,,Light Drizzle,0,2013-02-23 13:15:00
8:35 AM,37.2,36.1,96,29.92,7.0,Calm,Calm,-,N/A,,Overcast,0,2013-02-23 13:35:00
8:55 AM,34.7,33.4,95,29.91,0.8,Calm,Calm,-,N/A,,Overcast,0,2013-02-23 13:55:00
9:15 AM,34.7,33.4,95,29.91,0.8,Calm,Calm,-,N/A,,Overcast,0,2013-02-23 14:15:00
9:35 AM,35.6,34.5,96,29.91,3.0,Calm,Calm,-,N/A,,Overcast,0,2013-02-23 14:35:00
9:55 AM,36.0,34.9,96,29.91,1.8,Calm,Calm,-,N/A,,Overcast,0,2013-02-23 14:55:00
10:15 AM,37.2,36.1,96,29.91,3.0,Calm,Calm,-,N/A,,Overcast,0,2013-02-23 15:15:00
10:55 AM,43.2,41.7,95,29.91,4.0,Calm,Calm,-,N/A,,Overcast,0,2013-02-23 15:55:00
11:15 AM,42.8,41.4,95,29.90,7.0,Calm,Calm,-,N/A,,Overcast,0,2013-02-23 16:15:00
11:35 AM,43.5,42.1,95,29.90,10.0,Calm,Calm,-,N/A,,Overcast,0,2013-02-23 16:35:00
11:55 AM,45.0,43.2,93,29.89,10.0,Calm,Calm,-,N/A,,Overcast,0,2013-02-23 16:55:00
12:15 PM,45.9,43.2,90,29.89,10.0,Calm,Calm,-,N/A,,Overcast,0,2013-02-23 17:15:00
12:35 PM,47.8,44.4,88,29.89,10.0,Calm,Calm,-,N/A,,Overcast,0,2013-02-23 17:35:00
12:55 PM,46.8,43.2,87,29.89,10.0,Calm,Calm,-,N/A,,Overcast,0,2013-02-23 17:55:00
1:15 PM,46.8,43.3,88,29.88,10.0,Calm,Calm,-,N/A,,Overcast,0,2013-02-23 18:15:00
1:35 PM,47.1,43.2,86,29.87,10.0,Calm,Calm,-,N/A,,Overcast,0,2013-02-23 18:35:00
1:55 PM,47.8,43.0,83,29.86,10.0,South,3.5,-,N/A,,Overcast,180,2013-02-23 18:55:00
2:15 PM,47.7,41.9,80,29.86,10.0,Calm,Calm,-,N/A,,Overcast,0,2013-02-23 19:15:00
2:35 PM,47.8,42.3,81,29.86,10.0,South,3.5,-,N/A,,Overcast,180,2013-02-23 19:35:00
2:55 PM,47.3,41.5,80,29.86,10.0,South,3.5,-,N/A,,Mostly Cloudy,170,2013-02-23 19:55:00
3:15 PM,47.7,41.5,79,29.85,10.0,Calm,Calm,-,N/A,,Overcast,0,2013-02-23 20:15:00
3:35 PM,49.1,42.3,77,29.85,10.0,SSE,3.5,-,N/A,,Overcast,150,2013-02-23 20:35:00
3:55 PM,48.9,42.6,79,29.85,10.0,Calm,Calm,-,N/A,,Mostly Cloudy,0,2013-02-23 20:55:00
4:15 PM,49.6,43.0,78,29.85,10.0,Calm,Calm,-,N/A,,Mostly Cloudy,0,2013-02-23 21:15:00
4:35 PM,49.3,42.8,78,29.85,10.0,Calm,Calm,-,N/A,,Scattered Clouds,0,2013-02-23 21:35:00
4:55 PM,49.3,42.8,78,29.84,10.0,Calm,Calm,-,N/A,,Mostly Cloudy,0,2013-02-23 21:55:00
5:15 PM,48.6,42.8,80,29.84,10.0,Calm,Calm,-,N/A,,Mostly Cloudy,0,2013-02-23 22:15:00
5:35 PM,47.7,42.4,82,29.85,10.0,Calm,Calm,-,N/A,,Mostly Cloudy,0,2013-02-23 22:35:00
5:55 PM,46.4,41.9,84,29.83,10.0,Calm,Calm,-,N/A,,Overcast,0,2013-02-23 22:55:00
6:15 PM,45.9,41.5,85,29.83,10.0,Calm,Calm,-,N/A,,Scattered Clouds,0,2013-02-23 23:15:00
6:35 PM,45.5,41.5,86,29.82,10.0,Calm,Calm,-,N/A,,Clear,0,2013-02-23 23:35:00
6:55 PM,46.4,41.5,83,29.82,10.0,Calm,Calm,-,N/A,,Scattered Clouds,0,2013-02-23 23:55:00
7:15 PM,45.1,41.4,87,29.82,10.0,Calm,Calm,-,N/A,,Scattered Clouds,0,2013-02-24 00:15:00
7:35 PM,44.6,41.0,87,29.82,10.0,Calm,Calm,-,N/A,,Clear,0,2013-02-24 00:35:00
8:15 PM,46.9,40.3,78,29.82,10.0,WNW,3.5,-,N/A,,Clear,300,2013-02-24 01:15:00
8:55 PM,46.2,39.4,77,29.82,10.0,Calm,Calm,-,N/A,,Clear,0,2013-02-24 01:55:00
9:15 PM,46.4,36.7,69,29.81,10.0,Calm,Calm,-,N/A,,Clear,0,2013-02-24 02:15:00
9:35 PM,44.8,37.8,76,29.82,10.0,Calm,Calm,-,N/A,,Clear,0,2013-02-24 02:35:00
9:55 PM,45.7,36.5,70,29.82,10.0,Calm,Calm,-,N/A,,Clear,0,2013-02-24 02:55:00
10:15 PM,44.8,38.8,80,29.83,10.0,Calm,Calm,-,N/A,,Clear,0,2013-02-24 03:15:00
10:35 PM,44.1,35.8,73,29.83,10.0,WNW,4.6,-,N/A,,Clear,290,2013-02-24 03:35:00
10:55 PM,45.3,33.4,63,29.82,10.0,NW,4.6,-,N/A,,Clear,320,2013-02-24 03:55:00
11:15 PM,44.6,33.1,64,29.82,10.0,NW,3.5,-,N/A,,Clear,310,2013-02-24 04:15:00
11:35 PM,45.0,32.5,62,29.82,10.0,West,10.4,-,N/A,,Clear,280,2013-02-24 04:35:00
11:55 PM,44.6,37.0,75,29.82,10.0,West,13.8,17.3,N/A,,Clear,280,2013-02-24 04:55:00